TCA7111 SVMG-SVMI

Flight info

Callsign TCA7111
Flight time 0h 44m
Altitude 24000
Route ESPEP SARNI A561 CBC NETSI1
Aircraft B736/M-SDE2E3FGHIRWXY/LB1

Departure

Time 2026-04-23 03:16
Airport Del Caribe Santiago Mariño International Airport (SVMG)

Arrival

Time 2026-04-23 04:01
Airport Maiquetía Simón Bolívar International Airport (SVMI)
Time Latitude Longitude Altitude Speed Heading
2026-04-23 02:59 10.91570 -63.96940 60 ft 0 kts 346°
2026-04-23 03:08 10.91556 -63.96937 59 ft 2 kts 346°
2026-04-23 03:08 10.91540 -63.96933 59 ft 2 kts 346°
2026-04-23 03:08 10.91524 -63.96929 60 ft 2 kts 342°
2026-04-23 03:08 10.91512 -63.96923 60 ft 1 kts 306°
2026-04-23 03:09 10.91509 -63.96920 60 ft 0 kts 302°
2026-04-23 03:09 10.91510 -63.96920 60 ft 1 kts 302°
2026-04-23 03:10 10.91493 -63.96981 54 ft 11 kts 231°
2026-04-23 03:10 10.91469 -63.97003 60 ft 0 kts 220°
2026-04-23 03:10 10.91468 -63.97004 60 ft 1 kts 219°
2026-04-23 03:10 10.91401 -63.97014 58 ft 16 kts 193°
2026-04-23 03:11 10.91342 -63.97115 55 ft 19 kts 257°
2026-04-23 03:11 10.91316 -63.97252 59 ft 20 kts 259°
2026-04-23 03:11 10.91287 -63.97390 58 ft 20 kts 257°
2026-04-23 03:11 10.91256 -63.97523 59 ft 19 kts 257°
2026-04-23 03:12 10.91234 -63.97654 56 ft 18 kts 262°
2026-04-23 03:12 10.91211 -63.97779 57 ft 18 kts 250°
2026-04-23 03:12 10.91187 -63.97900 57 ft 17 kts 261°
2026-04-23 03:12 10.91161 -63.98007 58 ft 2 kts 258°
2026-04-23 03:13 10.91152 -63.98047 54 ft 16 kts 257°
2026-04-23 03:13 10.91104 -63.98142 58 ft 15 kts 186°
2026-04-23 03:14 10.91022 -63.98099 72 ft 12 kts 138°
2026-04-23 03:14 10.90983 -63.98029 76 ft 12 kts 89°
2026-04-23 03:14 10.90988 -63.97995 75 ft 0 kts 79°
2026-04-23 03:16 10.91054 -63.97684 69 ft 102 kts 78°
2026-04-23 03:16 10.91284 -63.96672 276 ft 181 kts 75°
2026-04-23 03:16 10.91958 -63.93602 1523 ft 249 kts 78°
2026-04-23 03:17 10.92277 -63.91870 2001 ft 248 kts 81°
2026-04-23 03:17 10.92182 -63.90124 2469 ft 249 kts 102°
2026-04-23 03:17 10.91536 -63.88502 2962 ft 253 kts 119°
2026-04-23 03:17 10.90381 -63.87114 3478 ft 258 kts 138°
2026-04-23 03:18 10.88822 -63.86194 3983 ft 262 kts 159°
2026-04-23 03:18 10.87044 -63.85915 4471 ft 267 kts 185°
2026-04-23 03:18 10.85289 -63.86504 4979 ft 269 kts 212°
2026-04-23 03:18 10.83866 -63.87727 5508 ft 269 kts 225°
2026-04-23 03:19 10.82754 -63.89261 6009 ft 270 kts 236°
2026-04-23 03:19 10.81722 -63.90860 6512 ft 270 kts 236°
2026-04-23 03:19 10.80692 -63.92466 7015 ft 271 kts 236°
2026-04-23 03:19 10.79660 -63.94076 7509 ft 273 kts 236°
2026-04-23 03:20 10.78618 -63.95699 8016 ft 274 kts 236°
2026-04-23 03:20 10.77572 -63.97328 8520 ft 276 kts 236°
2026-04-23 03:20 10.76697 -63.99065 9002 ft 278 kts 253°
2026-04-23 03:20 10.76426 -64.01012 9529 ft 280 kts 265°
2026-04-23 03:21 10.76322 -64.02996 10067 ft 281 kts 267°
2026-04-23 03:21 10.76244 -64.04976 10504 ft 296 kts 268°
2026-04-23 03:21 10.76159 -64.07176 10819 ft 324 kts 268°
2026-04-23 03:21 10.76067 -64.09475 11797 ft 326 kts 268°
2026-04-23 03:22 10.75969 -64.11788 12837 ft 328 kts 268°
2026-04-23 03:22 10.75866 -64.14128 13751 ft 334 kts 268°
2026-04-23 03:22 10.75757 -64.16508 14602 ft 339 kts 268°
2026-04-23 03:22 10.75645 -64.18921 15430 ft 345 kts 268°
2026-04-23 03:23 10.75530 -64.21379 16244 ft 350 kts 268°
2026-04-23 03:23 10.75411 -64.23870 17037 ft 355 kts 268°
2026-04-23 03:23 10.75291 -64.26391 17811 ft 359 kts 268°
2026-04-23 03:23 10.75171 -64.28912 18537 ft 364 kts 268°
2026-04-23 03:24 10.75048 -64.31506 19280 ft 369 kts 268°
2026-04-23 03:24 10.74922 -64.34125 20020 ft 373 kts 268°
2026-04-23 03:24 10.74795 -64.36771 20746 ft 377 kts 268°
2026-04-23 03:24 10.74666 -64.39448 21438 ft 381 kts 267°
2026-04-23 03:25 10.74535 -64.42155 22107 ft 385 kts 267°
2026-04-23 03:25 10.74403 -64.44886 22765 ft 389 kts 267°
2026-04-23 03:25 10.74269 -64.47648 23392 ft 393 kts 267°
2026-04-23 03:25 10.74133 -64.50442 23931 ft 398 kts 267°
2026-04-23 03:26 10.73996 -64.53280 23978 ft 409 kts 267°
2026-04-23 03:26 10.73853 -64.56218 24000 ft 422 kts 267°
2026-04-23 03:26 10.73706 -64.59235 24006 ft 434 kts 267°
2026-04-23 03:26 10.73534 -64.62338 24003 ft 444 kts 265°
2026-04-23 03:27 10.73217 -64.65490 24002 ft 452 kts 263°
2026-04-23 03:27 10.72813 -64.68646 23999 ft 459 kts 262°
2026-04-23 03:27 10.72368 -64.71886 23999 ft 465 kts 262°
2026-04-23 03:27 10.71921 -64.75169 23995 ft 469 kts 262°
2026-04-23 03:28 10.71484 -64.78473 23993 ft 473 kts 262°
2026-04-23 03:28 10.71056 -64.81800 23991 ft 476 kts 263°
2026-04-23 03:28 10.70634 -64.85153 23991 ft 479 kts 263°
2026-04-23 03:28 10.70220 -64.88478 23987 ft 479 kts 263°
2026-04-23 03:29 10.69801 -64.91842 23986 ft 479 kts 263°
2026-04-23 03:29 10.69383 -64.95201 23988 ft 479 kts 263°
2026-04-23 03:29 10.68962 -64.98569 23990 ft 478 kts 263°
2026-04-23 03:29 10.68541 -65.01928 23988 ft 478 kts 263°
2026-04-23 03:30 10.68121 -65.05271 23990 ft 478 kts 263°
2026-04-23 03:30 10.67700 -65.08622 23990 ft 477 kts 263°
2026-04-23 03:30 10.67279 -65.11967 23992 ft 477 kts 263°
2026-04-23 03:30 10.66868 -65.15313 23991 ft 477 kts 263°
2026-04-23 03:31 10.66501 -65.18665 23990 ft 477 kts 264°
2026-04-23 03:31 10.66157 -65.22018 23991 ft 477 kts 264°
2026-04-23 03:31 10.65819 -65.25378 23990 ft 477 kts 264°
2026-04-23 03:31 10.65484 -65.28689 23989 ft 478 kts 264°
2026-04-23 03:32 10.65140 -65.32052 23993 ft 478 kts 264°
2026-04-23 03:32 10.64792 -65.35413 23992 ft 478 kts 264°
2026-04-23 03:32 10.64440 -65.38774 23990 ft 479 kts 264°
2026-04-23 03:32 10.64086 -65.42143 23990 ft 479 kts 264°
2026-04-23 03:33 10.63730 -65.45516 23992 ft 479 kts 264°
2026-04-23 03:33 10.63374 -65.48886 23991 ft 479 kts 264°
2026-04-23 03:33 10.63017 -65.52251 23990 ft 478 kts 264°
2026-04-23 03:33 10.62666 -65.55575 23990 ft 478 kts 264°
2026-04-23 03:34 10.62305 -65.58982 23992 ft 478 kts 264°
2026-04-23 03:34 10.61954 -65.62297 23992 ft 478 kts 264°
2026-04-23 03:34 10.61596 -65.65668 23991 ft 478 kts 264°
2026-04-23 03:34 10.61239 -65.69030 23990 ft 479 kts 264°
2026-04-23 03:35 10.60882 -65.72398 23991 ft 479 kts 264°
2026-04-23 03:35 10.60523 -65.75767 23991 ft 479 kts 264°
2026-04-23 03:35 10.60286 -65.77996 23990 ft 479 kts 264°
2026-04-23 03:35 10.59933 -65.81309 23969 ft 461 kts 264°
2026-04-23 03:36 10.59597 -65.84462 23965 ft 434 kts 264°
2026-04-23 03:36 10.59280 -65.87438 23975 ft 413 kts 264°
2026-04-23 03:36 10.58970 -65.90341 23992 ft 414 kts 264°
2026-04-23 03:36 10.58658 -65.93253 23755 ft 415 kts 264°
2026-04-23 03:37 10.58348 -65.96151 23290 ft 411 kts 264°
2026-04-23 03:37 10.58040 -65.99032 22760 ft 407 kts 264°
2026-04-23 03:37 10.57739 -66.01876 22205 ft 402 kts 265°
2026-04-23 03:37 10.57915 -66.04657 21643 ft 398 kts 284°
2026-04-23 03:38 10.58919 -66.07250 21105 ft 393 kts 301°
2026-04-23 03:38 10.60459 -66.09535 20593 ft 389 kts 306°
2026-04-23 03:38 10.62066 -66.11737 20041 ft 386 kts 307°
2026-04-23 03:38 10.63669 -66.13917 19502 ft 383 kts 307°
2026-04-23 03:39 10.65249 -66.16090 18963 ft 380 kts 307°
2026-04-23 03:39 10.66801 -66.18256 18441 ft 377 kts 306°
2026-04-23 03:39 10.68331 -66.20409 17911 ft 374 kts 306°
2026-04-23 03:39 10.69844 -66.22544 17397 ft 371 kts 306°
2026-04-23 03:40 10.71348 -66.24668 16953 ft 366 kts 306°
2026-04-23 03:40 10.72819 -66.26738 16834 ft 356 kts 306°
2026-04-23 03:40 10.74270 -66.28777 16687 ft 358 kts 306°
2026-04-23 03:40 10.75746 -66.30849 16551 ft 364 kts 306°
2026-04-23 03:41 10.77216 -66.32915 16405 ft 365 kts 306°
2026-04-23 03:41 10.78702 -66.35002 16250 ft 363 kts 306°
2026-04-23 03:41 10.80158 -66.37088 16107 ft 362 kts 302°
2026-04-23 03:41 10.81067 -66.39469 16011 ft 362 kts 281°
2026-04-23 03:42 10.81144 -66.42010 15992 ft 357 kts 263°
2026-04-23 03:42 10.80765 -66.44466 15985 ft 345 kts 261°
2026-04-23 03:42 10.80338 -66.46819 15724 ft 336 kts 260°
2026-04-23 03:42 10.79901 -66.49158 15257 ft 335 kts 260°
2026-04-23 03:43 10.79475 -66.51463 14994 ft 328 kts 260°
2026-04-23 03:43 10.79064 -66.53729 14638 ft 324 kts 260°
2026-04-23 03:43 10.78666 -66.55969 14291 ft 320 kts 261°
2026-04-23 03:43 10.78275 -66.58188 13941 ft 317 kts 260°
2026-04-23 03:44 10.77891 -66.60384 13590 ft 314 kts 261°
2026-04-23 03:44 10.77514 -66.62561 13241 ft 311 kts 261°
2026-04-23 03:44 10.77140 -66.64720 12890 ft 308 kts 261°
2026-04-23 03:44 10.76775 -66.66827 12546 ft 306 kts 261°
2026-04-23 03:45 10.76407 -66.68951 12196 ft 304 kts 261°
2026-04-23 03:45 10.76042 -66.71055 11895 ft 300 kts 261°
2026-04-23 03:45 10.75683 -66.73127 11591 ft 296 kts 261°
2026-04-23 03:45 10.75331 -66.75160 11271 ft 286 kts 260°
2026-04-23 03:46 10.74989 -66.77128 10966 ft 279 kts 260°
2026-04-23 03:46 10.74653 -66.79066 10669 ft 277 kts 260°
2026-04-23 03:46 10.74321 -66.80984 10370 ft 275 kts 260°
2026-04-23 03:46 10.73989 -66.82897 10070 ft 273 kts 260°
2026-04-23 03:47 10.73660 -66.84791 9805 ft 271 kts 260°
2026-04-23 03:47 10.73328 -66.86672 9520 ft 271 kts 260°
2026-04-23 03:47 10.73008 -66.88544 9270 ft 268 kts 259°
2026-04-23 03:47 10.72703 -66.90386 9016 ft 263 kts 263°
2026-04-23 03:48 10.72619 -66.92241 8736 ft 264 kts 269°
2026-04-23 03:48 10.72635 -66.94099 8463 ft 267 kts 270°
2026-04-23 03:48 10.72664 -66.95996 8191 ft 269 kts 270°
2026-04-23 03:48 10.72686 -66.97904 7918 ft 269 kts 270°
2026-04-23 03:49 10.72701 -66.99804 7640 ft 269 kts 270°
2026-04-23 03:49 10.72710 -67.01713 7363 ft 269 kts 270°
2026-04-23 03:49 10.72715 -67.03615 7088 ft 269 kts 270°
2026-04-23 03:49 10.72713 -67.05517 6811 ft 268 kts 270°
2026-04-23 03:50 10.72711 -67.07392 6541 ft 269 kts 270°
2026-04-23 03:50 10.72710 -67.09282 6260 ft 265 kts 270°
2026-04-23 03:50 10.72708 -67.11136 5976 ft 260 kts 270°
2026-04-23 03:50 10.72701 -67.12967 5700 ft 258 kts 270°
2026-04-23 03:51 10.72698 -67.14786 5417 ft 257 kts 270°
2026-04-23 03:51 10.72695 -67.16603 5152 ft 257 kts 270°
2026-04-23 03:51 10.72692 -67.18427 5047 ft 261 kts 270°
2026-04-23 03:51 10.72688 -67.20272 5006 ft 261 kts 270°
2026-04-23 03:52 10.72692 -67.22112 4917 ft 260 kts 271°
2026-04-23 03:52 10.72703 -67.23952 4692 ft 259 kts 271°
2026-04-23 03:52 10.72713 -67.25761 4497 ft 252 kts 271°
2026-04-23 03:52 10.72722 -67.27519 4318 ft 245 kts 271°
2026-04-23 03:53 10.72716 -67.29216 4152 ft 242 kts 266°
2026-04-23 03:53 10.72142 -67.30806 4029 ft 244 kts 233°
2026-04-23 03:53 10.70812 -67.31877 3963 ft 248 kts 201°
2026-04-23 03:53 10.69123 -67.32086 3845 ft 247 kts 169°
2026-04-23 03:54 10.67610 -67.31355 3710 ft 241 kts 137°
2026-04-23 03:54 10.66512 -67.30068 3609 ft 243 kts 124°
2026-04-23 03:54 10.65544 -67.28670 3524 ft 240 kts 122°
2026-04-23 03:54 10.64604 -67.27284 3503 ft 238 kts 123°
2026-04-23 03:55 10.63650 -67.25902 3504 ft 239 kts 123°
2026-04-23 03:55 10.62705 -67.24549 3485 ft 226 kts 123°
2026-04-23 03:55 10.61823 -67.23296 3467 ft 209 kts 123°
2026-04-23 03:55 10.61032 -67.22177 3485 ft 192 kts 123°
2026-04-23 03:56 10.60269 -67.21065 3457 ft 189 kts 116°
2026-04-23 03:56 10.59743 -67.19863 3391 ft 189 kts 112°
2026-04-23 03:56 10.59497 -67.18596 3278 ft 179 kts 78°
2026-04-23 03:56 10.59755 -67.17450 3235 ft 158 kts 79°
2026-04-23 03:57 10.59863 -67.16380 3106 ft 148 kts 83°
2026-04-23 03:57 10.59918 -67.15359 2949 ft 141 kts 84°
2026-04-23 03:57 10.59956 -67.14384 2751 ft 137 kts 85°
2026-04-23 03:57 10.59988 -67.13412 2571 ft 138 kts 85°
2026-04-23 03:58 10.60022 -67.12446 2386 ft 138 kts 86°
2026-04-23 03:58 10.60052 -67.11461 2201 ft 138 kts 86°
2026-04-23 03:58 10.60083 -67.10495 2022 ft 138 kts 88°
2026-04-23 03:58 10.60109 -67.09547 1882 ft 129 kts 89°
2026-04-23 03:59 10.60107 -67.08606 1696 ft 131 kts 92°
2026-04-23 03:59 10.60036 -67.07647 1434 ft 142 kts 93°
2026-04-23 03:59 10.60013 -67.06612 1151 ft 148 kts 88°
2026-04-23 03:59 10.60077 -67.05608 1005 ft 140 kts 87°
2026-04-23 04:00 10.60132 -67.04653 818 ft 133 kts 88°
2026-04-23 04:00 10.60145 -67.03726 721 ft 131 kts 91°
2026-04-23 04:00 10.60171 -67.02795 604 ft 132 kts 87°
2026-04-23 04:00 10.60195 -67.01883 424 ft 127 kts 91°
2026-04-23 04:01 10.60228 -67.00989 249 ft 120 kts 89°
2026-04-23 04:01 10.60244 -67.00282 217 ft 71 kts 88°
2026-04-23 04:01 10.60255 -66.99998 217 ft 13 kts 88°
2026-04-23 04:01 10.60204 -66.99920 217 ft 17 kts 169°
2026-04-23 04:02 10.60124 -66.99966 218 ft 15 kts 257°
2026-04-23 04:02 10.60112 -67.00070 219 ft 14 kts 264°
2026-04-23 04:02 10.60107 -67.00145 220 ft 8 kts 270°
2026-04-23 04:02 10.60105 -67.00197 221 ft 8 kts 265°
2026-04-23 04:03 10.60075 -67.00291 223 ft 17 kts 204°
2026-04-23 04:03 10.59984 -67.00300 224 ft 12 kts 180°
2026-04-23 04:03 10.59910 -67.00331 224 ft 11 kts 208°
2026-04-23 04:03 10.59845 -67.00337 224 ft 7 kts 179°
2026-04-23 04:04 10.59835 -67.00336 224 ft 0 kts 177°